ロニオス彗星

159P/LONEOS (2004)

English version
Home page
Updated on May 8, 2006

---------------------------------------------------------------------

・ プロフィール

符号 159P/2003 UD16
発見日 2003年10月16日
発見光度 18.8等
発見者 Lowell Observatory Near-Earth Object Search

・ 軌道要素

Epoch 2004 Mar. 16.0 TT = JDT 2453080.5
T 2004 Mar. 3.07823 TT                                  MPC
q   3.6508526            (2000.0)            P               Q
n   0.06886614     Peri.    4.99908     +0.50346694     -0.80005225
a   5.8947523      Node    55.16130     +0.77830258     +0.25598204
e   0.3806606      Incl.   23.42153     +0.37518813     +0.54257682
P  14.31

・ 星図

・ 光度変化

        m1 = 4.0 + 5 logΔ + 20 log r(t - 300)

---------------------------------------------------------------------

軌道要素はM.P.E.C. 2004-A18に掲載されたものです。
星図は StellaNavigator Ver.2.0 for Windows (アストロアーツ 編著 / アスキー出版局刊) で作成したものです。
光度グラフはComet for Windowsで作成したものです。

---------------------------------------------------------------------

Copyright(C) Seiichi Yoshida (comet@aerith.net). All rights reserved.